Location: Greenwich
(51.4790°N, 0.0090°E)
Time: 01:20:46
(UTC+01:00)

Transit 2A - Pass Details

Date: 28 April 2024
Orbit: 594 x 957 km, 66.7° (Epoch: 19 May)

Event Time Altitude Azimuth Distance (km) Brightness Sun altitude
Rises 04:33:48 0° 170° (S) 2,856 8.7 -9.3°
Reaches altitude 10° 04:36:33 10° 152° (SSE) 1,992 8.1 -8.9°
Maximum altitude 04:39:37 18° 108° (ESE) 1,562 8.1 -8.5°
Drops below altitude 10° 04:42:51 10° 65° (ENE) 2,116 9.9 -8.1°
Sets 04:45:52 0° 47° (NE) 3,106 11.4 -7.7°
